1508050800.08,62592,13.81,74862.0,6.43,-20.29,-21.47,0,*7F
1508050801.33,62593,13.81,74858.3,6.43,-20.73,-21.83,0,*79
1508050802.59,62594,13.88,74862.5,6.43,-19.99,-21.23,0,*7A
1508050803.86,62595,13.88,74868.5,6.43,-19.81,-21.03,0,*70
1508050805.12,62596,13.81,74862.3,6.43,-19.99,-21.23,0,*78
1508050806.34,62597,13.81,74860.5,6.43,-20.39,-21.47,0,*7B
1508050807.57,62598,13.81,74866.0,6.43,-20.89,-22.11,0,*7F
1508050808.79,62599,13.88,74860.8,6.43,-21.09,-22.27,0,*72
1508050810.01,62600,13.81,74854.5,6.43,-20.69,-21.73,0,*74
1508050811.28,62601,13.88,74852.5,6.43,-20.15,-21.33,0,*7A
1508050812.53,62602,13.81,74854.3,6.41,-20.15,-21.33,0,*7B
1508050813.78,62603,13.88,74858.8,6.43,-19.61,-20.69,0,*7F
1508050815.04,62604,13.88,74858.0,6.43,-19.71,-20.79,0,*78
1508050816.31,62605,13.81,74866.5,6.43,-19.61,-20.79,0,*78
1508050817.55,62606,13.88,74874.0,6.43,-19.95,-21.17,0,*79
1508050818.8,62607,13.81,74862.0,6.43,-19.81,-20.89,0,*7B
1508050820.05,62608,13.88,74858.5,6.43,-19.81,-20.89,0,*74
1508050821.3,62609,13.88,74862.5,6.43,-19.71,-20.79,0,*75
1508050822.56,62610,13.81,74862.0,6.47,-19.57,-20.63,0,*76
1508050823.81,62611,13.81,74868.0,6.45,-19.65,-20.83,0,*7A
1508050825.01,62612,13.88,74872.5,6.45,-21.17,-22.27,0,*7B
1508050826.23,62613,13.88,74854.5,6.45,-21.17,-22.21,0,*7C
1508050827.43,62614,13.88,74856.3,6.45,-21.17,-22.27,0,*7D
1508050828.66,62615,13.81,74850.5,6.43,-20.93,-22.03,0,*71
1508050829.91,62616,13.88,74846.5,6.41,-20.53,-21.53,0,*7A
1508050831.1,62617,13.88,74852.0,6.41,-20.29,-21.39,0,*7A
1508050832.34,62618,13.88,74850.5,6.43,-20.09,-21.33,0,*7F
1508050833.61,62619,13.88,74840.5,6.43,-20.79,-21.97,0,*77
1508050834.87,62620,13.81,74836.3,6.43,-21.17,-22.17,0,*7F
1508050836.07,62621,13.81,74838.3,6.41,-20.89,-22.03,0,*7F
1508050837.33,62622,13.88,74832.3,6.39,-20.83,-21.93,0,*73
1508050838.52,62623,13.88,74842.8,6.37,-20.05,-21.13,0,*7A
1508050839.72,62624,13.88,74840.3,6.41,-19.99,-21.09,0,*78
1508050840.97,62625,13.88,74836.0,6.39,-19.91,-20.99,0,*76
1508050842.22,62626,13.81,74838.0,6.39,-20.79,-21.73,0,*7C
1508050843.5,62627,13.81,74828.8,6.39,-21.67,-22.77,0,*74
1508050844.7,62628,13.81,74844.0,6.37,-20.39,-21.43,0,*7B
1508050845.94,62629,13.88,74836.8,6.39,-20.15,-21.13,0,*7F
1508050847.14,62630,13.88,74830.0,6.41,-20.25,-21.39,0,*73
1508050848.37,62631,13.88,74832.3,6.37,-19.95,-20.79,0,*77
1508050849.63,62632,13.88,74838.3,6.39,-19.65,-20.63,0,*7E
1508050850.9,62633,13.88,74842.5,6.39,-19.85,-20.83,0,*7F
1508050852.18,62634,13.88,74842.0,6.39,-19.85,-20.83,0,*78
1508050853.41,62635,13.88,74844.3,6.41,-20.25,-21.23,0,*7D
1508050854.67,62636,13.88,74840.0,6.39,-18.83,-21.27,0,*72
1508050855.92,62637,13.88,74836.3,6.39,-18.49,-21.53,0,*76
1508050857.17,62638,13.88,74836.8,6.39,-18.45,-21.53,0,*75
1508050858.39,62639,13.88,74838.3,6.37,-18.65,-21.57,0,*7C
1508050859.59,62640,13.88,74850.3,6.37,-18.25,-21.13,0,*76
1508050860.84,62641,13.88,74852.5,6.39,-18.31,-21.43,0,*79
1508050862.09,62642,13.88,74844.5,6.39,-18.49,-21.57,0,*70
1508050863.32,62643,13.88,74840.8,6.37,-19.17,-22.21,0,*77
1508050864.54,62644,13.88,74842.8,6.37,-18.69,-21.57,0,*7A
1508050865.77,62645,13.88,74840.8,6.37,-18.41,-21.27,0,*76
1508050867.0,62646,13.88,74844.3,6.37,-18.21,-20.99,0,*77
1508050868.23,62647,13.88,74842.5,6.37,-17.83,-20.53,0,*77
1508050869.46,62648,13.88,74844.0,6.37,-17.73,-20.49,0,*7C
1508050870.72,62649,13.88,74846.5,6.39,-17.87,-20.49,0,*78
1508050871.95,62650,13.88,74842.5,6.39,-17.73,-20.43,0,*71
1508050873.23,62651,13.88,74842.5,6.39,-17.59,-20.19,0,*77
1508050874.5,62652,13.88,74842.5,6.39,-17.55,-20.15,0,*74
1508050875.75,62653,13.88,74850.3,6.39,-17.55,-19.91,0,*73
1508050876.98,62654,13.88,74846.0,6.41,-17.55,-19.95,0,*7F
1508050878.19,62655,13.88,74846.3,6.41,-17.35,-19.71,0,*72
1508050879.39,62656,13.88,74846.5,6.45,-17.49,-19.95,0,*74
1508050880.67,62657,13.88,74852.8,6.43,-18.01,-20.53,0,*70
1508050881.87,62658,13.88,74848.8,6.45,-18.21,-20.73,0,*79
1508050883.12,62659,13.88,74850.0,6.43,-18.25,-20.79,0,*70
1508050884.37,62660,13.88,74852.8,6.43,-18.31,-20.69,0,*7E
1508050885.6,62661,13.81,74852.8,6.43,-18.25,-20.59,0,*79
1508050886.81,62662,13.88,74856.3,6.41,-18.17,-20.43,0,*72
1508050888.06,62663,13.88,74854.0,6.41,-18.59,-21.03,0,*7C
1508050889.27,62664,13.88,74858.3,6.41,-18.17,-20.43,0,*74
1508050890.5,62665,13.88,74852.0,6.41,-18.31,-20.69,0,*79
1508050891.73,62666,13.88,74854.3,6.41,-18.59,-20.93,0,*71
1508050892.96,62667,13.88,74852.0,6.41,-18.93,-21.39,0,*77
1508050894.19,62668,13.88,74856.0,6.37,-18.55,-20.89,0,*79
1508050895.39,62669,13.88,74854.3,6.37,-18.49,-20.93,0,*7E
1508050896.67,62670,13.88,74850.0,6.39,-18.35,-20.83,0,*72
1508050897.87,62671,13.88,74850.0,6.37,-19.03,-21.43,0,*74
1508050899.09,62672,13.88,74848.5,6.37,-18.89,-21.13,0,*71
1508050900.29,62673,13.88,74844.3,6.37,-19.17,-21.47,0,*77
1508050901.52,62674,13.88,74848.0,6.39,-18.79,-21.09,0,*7D
1508050902.73,62675,13.88,74852.5,6.37,-18.79,-20.89,0,*7B
1508050903.95,62676,13.88,74856.0,6.37,-18.83,-21.03,0,*7E
1508050905.18,62677,13.88,74852.3,6.37,-18.79,-20.99,0,*78
1508050906.44,62678,13.88,74854.3,6.39,-18.45,-20.49,0,*7B
1508050907.67,62679,13.88,74858.8,6.37,-18.69,-20.79,0,*79
1508050908.9,62680,13.88,74856.5,6.37,-18.35,-20.39,0,*72
1508050910.16,62681,13.88,74856.0,6.39,-18.35,-20.43,0,*70
1508050911.39,62682,13.88,74866.5,6.39,-18.49,-20.59,0,*73
1508050912.6,62683,13.88,74862.3,6.37,-18.69,-20.69,0,*7D
1508050913.83,62684,13.88,74864.5,6.37,-18.41,-20.49,0,*72
1508050915.06,62685,13.88,74862.3,6.37,-18.35,-20.39,0,*77
1508050916.34,62686,13.88,74860.5,6.39,-18.59,-20.49,0,*77
1508050917.55,62687,13.88,74860.0,6.41,-18.69,-20.63,0,*72
1508050918.79,62688,13.88,74858.3,6.41,-18.93,-20.89,0,*7C
1508050920.02,62689,13.88,74862.0,6.41,-18.73,-20.53,0,*74
1508050921.26,62690,13.88,74858.8,6.41,-18.73,-20.53,0,*7C
1508050922.49,62691,13.88,74866.5,6.41,-18.73,-20.53,0,*7D
1508050923.7,62692,13.88,74862.5,6.41,-18.73,-20.39,0,*72
1508050924.91,62693,13.88,74862.5,6.41,-18.69,-20.25,0,*75
1508050926.15,62694,13.88,74862.5,6.41,-18.59,-20.15,0,*72
1508050927.36,62695,13.88,74868.0,6.41,-18.73,-20.39,0,*75
1508050928.59,62696,13.88,74868.0,6.43,-18.73,-20.29,0,*75
1508050929.82,62697,13.88,74864.0,6.43,-18.79,-20.29,0,*7E
1508050931.07,62698,13.88,74860.8,6.43,-18.89,-20.43,0,*72
1508050932.33,62699,13.88,74862.0,6.43,-19.23,-20.89,0,*74
1508050933.56,62700,13.88,74862.5,6.43,-19.03,-20.43,0,*71
1508050934.82,62701,13.88,74844.8,6.43,-19.17,-20.53,0,*74
1508050936.05,62702,13.88,74846.8,6.41,-19.85,-21.39,0,*73
1508050937.28,62703,13.88,74850.8,6.43,-19.47,-20.89,0,*74
1508050938.57,62704,13.88,74850.8,6.43,-19.23,-20.53,0,*76
1508050939.8,62705,13.88,74848.3,6.43,-19.03,-20.39,0,*79
1508050941.04,62706,13.88,74852.3,6.43,-19.37,-20.59,0,*7B
1508050942.27,62707,13.88,74854.8,6.45,-19.13,-20.35,0,*70
1508050943.51,62708,13.88,74854.3,6.45,-19.27,-20.39,0,*74
1508050944.77,62709,13.88,74856.8,6.45,-19.31,-20.49,0,*75
1508050945.98,62710,13.88,74854.0,6.45,-19.17,-20.25,0,*73
1508050947.24,62711,13.88,74848.5,6.47,-19.47,-20.49,0,*7F
1508050948.52,62712,13.88,74854.5,6.47,-19.61,-20.49,0,*78
1508050949.76,62713,13.88,74854.0,6.45,-19.31,-20.39,0,*79
1508050951.0,62714,13.88,74854.0,6.47,-19.95,-20.89,0,*79
1508050952.25,62715,13.88,74858.8,6.47,-19.65,-20.63,0,*73
1508050953.45,62716,13.88,74852.8,6.45,-20.09,-21.17,0,*70
1508050954.69,62717,13.88,74858.3,6.45,-20.19,-21.27,0,*73
1508050955.89,62718,13.88,74854.0,6.45,-20.69,-21.63,0,*7B
1508050957.14,62719,13.88,74852.5,6.43,-20.73,-21.83,0,*79
1508050958.36,62720,13.88,74852.8,6.41,-20.73,-21.67,0,*7B
1508050959.61,62721,13.88,74852.0,6.41,-20.53,-21.53,0,*7F
1508050960.83,62722,13.88,74858.3,6.41,-20.79,-21.73,0,*76
1508050962.06,62723,13.88,74862.8,6.41,-20.93,-21.87,0,*78
1508050963.26,62724,13.88,74854.0,6.41,-20.39,-21.39,0,*7A
1508050964.52,62725,13.88,74862.5,6.39,-19.85,-20.63,0,*77
1508050965.8,62726,13.88,74856.3,6.39,-19.41,-20.49,0,*74
1508050967.03,62727,13.88,74860.5,6.41,-19.81,-20.59,0,*77
1508050968.28,62728,13.88,74860.3,6.41,-19.31,-20.15,0,*7B
1508050969.51,62729,13.88,74864.5,6.41,-19.23,-20.09,0,*74
1508050970.72,62730,13.88,74850.0,6.41,-19.51,-20.43,0,*77
1508050971.93,62731,13.88,74862.8,6.41,-19.47,-20.29,0,*7D
1508050973.16,62732,13.88,74862.8,6.43,-19.47,-20.39,0,*7D
1508050974.4,62733,13.88,74858.8,6.43,-19.51,-20.39,0,*7B
1508050975.66,62734,13.88,74848.5,6.43,-19.81,-20.79,0,*75
1508050976.9,62735,13.88,74850.5,6.43,-19.51,-20.39,0,*7D
1508050978.17,62736,13.88,74850.5,6.43,-19.31,-20.15,0,*76
1508050979.38,62737,13.88,74850.0,6.45,-19.17,-20.05,0,*74
1508050980.63,62738,13.88,74852.0,6.45,-19.41,-20.35,0,*7B
1508050981.83,62739,13.88,74844.5,6.45,-19.75,-20.73,0,*7F
1508050983.09,62740,13.88,74850.5,6.45,-19.61,-20.49,0,*7D
1508050984.31,62741,13.88,74850.0,6.45,-19.91,-20.99,0,*7E
1508050985.54,62742,13.88,74850.3,6.45,-19.75,-20.53,0,*71
1508050986.74,62743,13.88,74850.3,6.45,-19.91,-20.89,0,*7D
1508050987.96,62744,13.88,74844.3,6.41,-19.81,-20.69,0,*71
1508050989.22,62745,13.88,74844.3,6.45,-19.65,-20.49,0,*7C
1508050990.46,62746,13.88,74844.5,6.45,-19.27,-20.25,0,*73
1508050991.71,62747,13.88,74844.5,6.45,-19.41,-20.35,0,*73
1508050992.93,62748,13.88,74836.3,6.45,-19.65,-20.63,0,*79
1508050994.19,62749,13.88,74842.3,6.45,-19.57,-20.49,0,*71
1508050995.43,62750,13.88,74846.3,6.45,-19.27,-20.25,0,*74
1508050996.68,62751,13.88,74844.8,6.45,-19.41,-20.35,0,*74
1508050997.94,62752,13.88,74846.0,6.47,-19.31,-20.25,0,*73
1508050999.17,62753,13.88,74844.0,6.47,-19.47,-20.39,0,*7E
1508051000.4,62754,13.88,74846.0,6.45,-19.75,-20.49,0,*7D
1508051001.66,62755,13.88,74846.0,6.45,-19.57,-20.53,0,*77
1508051002.89,62756,13.88,74846.5,6.47,-19.47,-20.39,0,*7B
1508051004.13,62757,13.88,74846.5,6.47,-19.47,-20.39,0,*7A
1508051005.33,62758,13.88,74848.5,6.49,-19.51,-20.29,0,*7D
1508051006.56,62759,13.88,74840.5,6.47,-19.91,-20.89,0,*74
1508051007.82,62760,13.88,74846.8,6.47,-19.95,-20.83,0,*70
1508051009.08,62761,13.88,74840.8,6.49,-19.61,-20.49,0,*72
1508051010.33,62762,13.88,74844.3,6.49,-19.41,-20.19,0,*76
1508051011.57,62763,13.88,74846.8,6.49,-19.61,-20.43,0,*7A
1508051012.83,62764,13.88,74848.5,6.51,-19.31,-20.29,0,*7D
1508051014.05,62765,13.88,74848.8,6.49,-20.15,-21.13,0,*71
1508051015.3,62766,13.88,74844.3,6.51,-20.29,-21.23,0,*77
1508051016.53,62767,13.88,74842.8,6.49,-20.83,-21.93,0,*74
1508051017.76,62768,13.88,74844.3,6.47,-20.89,-21.93,0,*7F
1508051019.03,62769,13.88,74836.3,6.47,-20.53,-21.57,0,*71
1508051020.23,62770,13.88,74836.5,6.45,-21.17,-22.11,0,*7B
1508051021.42,62771,13.88,74838.8,6.45,-21.13,-22.11,0,*7E
1508051022.68,62772,13.88,74836.3,6.43,-20.69,-21.67,0,*75
1508051023.88,62773,13.88,74844.8,6.41,-20.43,-21.39,0,*75
1508051025.16,62774,13.88,74848.5,6.43,-21.03,-21.87,0,*70
1508051026.36,62775,13.88,74834.3,6.41,-21.09,-22.03,0,*76
1508051027.56,62776,13.88,74838.0,6.41,-20.39,-21.39,0,*7D
1508051028.78,62777,13.88,74842.5,6.41,-19.95,-20.89,0,*7A
1508051030.03,62778,13.88,74842.0,6.39,-20.29,-21.27,0,*72
1508051031.26,62779,13.88,74846.3,6.41,-20.89,-21.83,0,*78
1508051032.51,62780,13.88,74842.8,6.39,-20.73,-21.67,0,*7E
1508051033.75,62781,13.88,74838.8,6.39,-20.35,-21.39,0,*76
1508051034.99,62782,13.88,74838.8,6.39,-19.99,-20.73,0,*76
1508051036.22,62783,13.88,74842.5,6.39,-19.75,-20.73,0,*75
1508051037.51,62784,13.88,74842.0,6.39,-19.57,-20.49,0,*7B
1508051038.74,62785,13.88,74838.5,6.39,-19.51,-20.43,0,*76
1508051040.0,62786,13.88,74842.5,6.39,-19.51,-20.35,0,*74
1508051041.21,62787,13.94,74850.5,6.41,-19.37,-20.29,0,*77
1508051042.47,62788,13.94,74848.8,6.43,-19.61,-20.43,0,*75
1508051043.71,62789,13.88,74848.0,6.43,-19.71,-20.59,0,*7E
1508051044.96,62790,13.88,74844.8,6.43,-19.65,-20.59,0,*73
1508051046.22,62791,13.88,74850.5,6.43,-19.85,-20.89,0,*71
1508051047.44,62792,13.88,74852.5,6.43,-20.09,-21.09,0,*75
1508051048.66,62793,13.88,74856.3,6.43,-21.09,-22.03,0,*7C
1508051049.94,62794,13.88,74858.8,6.43,-21.33,-22.17,0,*77
1508051051.19,62795,13.88,74858.0,6.41,-20.79,-21.87,0,*71
1508051052.44,62796,13.88,74856.8,6.39,-21.13,-22.21,0,*7F
1508051053.64,62797,13.88,74852.5,6.37,-21.13,-22.27,0,*76
1508051054.86,62798,13.88,74854.0,6.37,-20.99,-22.11,0,*7F
1508051056.06,62799,13.88,74854.0,6.37,-21.43,-22.27,0,*7D
1508051057.28,62800,13.94,74858.8,6.37,-20.89,-21.97,0,*7D
1508051058.54,62801,13.88,74838.0,6.31,-21.03,-22.03,0,*77
1508051059.81,62802,13.88,74836.5,6.35,-20.49,-21.57,0,*7D
1508051061.04,62803,13.88,74856.0,6.31,-19.99,-20.93,0,*76
1508051062.28,62804,13.88,74846.0,6.37,-19.61,-20.63,0,*7F
1508051063.5,62805,13.88,74838.3,6.31,-20.09,-21.17,0,*7E
1508051064.75,62806,13.88,74850.5,6.37,-19.61,-20.79,0,*76
1508051066.01,62807,13.94,74842.0,6.35,-19.95,-20.99,0,*70
1508051067.21,62808,13.88,74846.8,6.37,-19.75,-20.69,0,*7C
1508051068.44,62809,13.88,74840.3,6.37,-19.57,-20.69,0,*7D
1508051069.66,62810,13.94,74848.8,6.37,-20.05,-21.03,0,*75
1508051070.92,62811,13.88,74842.5,6.39,-19.41,-20.43,0,*75
1508051072.16,62812,13.94,74832.5,6.37,-20.19,-21.33,0,*79
1508051073.38,62813,13.88,74816.8,6.37,-20.09,-21.27,0,*7C
1508051074.63,62814,13.94,74836.3,6.37,-20.19,-21.27,0,*7A
1508051075.87,62815,13.88,74826.0,6.35,-20.35,-21.43,0,*75
1508051077.09,62816,13.88,74818.0,6.37,-19.91,-20.79,0,*78
1508051078.32,62817,13.88,74840.8,6.39,-19.99,-20.93,0,*7B
1508051079.59,62818,13.94,74834.8,6.39,-19.57,-20.59,0,*70
1508051080.84,62819,13.94,74844.0,6.39,-20.05,-21.23,0,*70
1508051082.08,62820,13.88,74844.3,6.39,-19.71,-20.59,0,*7F
1508051083.36,62821,13.88,74872.8,6.39,-19.85,-20.83,0,*72
1508051084.61,62822,13.94,74878.0,6.39,-19.99,-20.99,0,*77
1508051085.87,62823,13.94,74870.3,6.39,-21.53,-22.53,0,*7F
1508051087.12,62824,13.94,74858.5,6.37,-21.97,-23.19,0,*71
1508051088.38,62825,13.94,74850.8,6.35,-21.73,-22.77,0,*71
1508051089.63,62826,13.88,74812.3,6.31,-20.89,-21.83,0,*7A
1508051090.85,62827,13.94,74814.5,6.31,-20.09,-21.09,0,*71
1508051092.13,62828,13.94,74810.3,6.35,-20.19,-21.27,0,*77
1508051093.4,62829,13.88,74814.0,6.31,-20.15,-21.33,0,*7B
1508051094.65,62830,13.88,74834.3,6.31,-20.25,-21.33,0,*70
1508051095.9,62831,13.88,74820.0,6.31,-20.15,-21.17,0,*74
1508051097.18,62832,13.94,74810.5,6.31,-20.53,-21.53,0,*75
1508051098.43,62833,13.94,74818.3,6.31,-20.09,-21.23,0,*7C
1508051099.69,62834,13.94,74830.8,6.35,-19.81,-20.89,0,*74
1508051100.96,62835,13.88,74828.0,6.35,-19.81,-20.99,0,*74
1508051102.21,62836,13.88,74836.0,6.35,-19.91,-20.99,0,*76
1508051103.48,62837,13.94,74838.5,6.35,-19.81,-20.79,0,*78
1508051104.71,62838,13.94,74842.0,6.31,-20.39,-21.39,0,*7F
1508051105.96,62839,13.94,74836.0,6.31,-21.57,-22.53,0,*78
1508051107.19,62840,13.94,74832.8,6.31,-21.17,-22.27,0,*71
1508051108.45,62841,13.94,74818.0,6.29,-21.27,-22.47,0,*7C
1508051109.7,62842,13.94,74830.0,6.27,-20.79,-21.73,0,*7F
1508051110.95,62843,13.94,74830.5,6.29,-20.79,-21.87,0,*7B
1508051112.19,62844,13.94,74828.3,6.25,-21.57,-22.53,0,*77
1508051113.44,62845,13.94,74828.3,6.27,-20.19,-21.13,0,*78
1508051114.7,62846,13.94,74834.0,6.27,-19.65,-20.59,0,*75
1508051116.0,62847,13.88,74822.0,6.27,-19.57,-20.49,0,*74
1508051117.23,62848,13.94,74840.5,6.29,-19.65,-20.59,0,*75
1508051118.44,62849,13.94,74844.3,6.29,-19.71,-20.59,0,*71
1508051119.65,62850,13.94,74838.0,6.29,-19.51,-20.43,0,*70
1508051120.89,62851,13.94,74838.0,6.29,-19.57,-20.43,0,*77
1508051122.1,62852,13.94,74844.0,6.29,-19.51,-20.59,0,*79
1508051123.34,62853,13.94,74842.3,6.31,-19.95,-20.93,0,*7F
1508051124.55,62854,13.94,74836.0,6.31,-20.09,-21.09,0,*75
1508051125.78,62855,13.94,74832.8,6.31,-20.25,-21.17,0,*75
1508051127.02,62856,13.94,74842.3,6.31,-19.37,-20.29,0,*73
1508051128.31,62857,13.94,74846.0,6.35,-19.27,-20.19,0,*74
1508051129.55,62858,13.94,74852.8,6.35,-19.13,-19.95,0,*72
1508051130.78,62859,13.94,74850.3,6.35,-19.03,-19.95,0,*72
1508051132.02,62860,13.88,74848.8,6.35,-19.17,-20.05,0,*7E
1508051133.31,62861,13.94,74848.5,6.39,-19.57,-20.49,0,*7F
1508051134.54,62862,13.94,74844.3,6.37,-19.71,-20.53,0,*7D
1508051135.76,62863,13.94,74844.0,6.37,-19.81,-20.63,0,*70
1508051137.01,62864,13.94,74844.3,6.39,-19.23,-20.29,0,*7F
1508051138.25,62865,13.94,74840.5,6.39,-19.51,-20.43,0,*77
1508051139.49,62866,13.94,74836.3,6.39,-19.71,-20.59,0,*7D
1508051140.77,62867,13.88,74834.0,6.39,-19.27,-20.15,0,*77
1508051142.06,62868,13.94,74836.3,6.39,-19.57,-20.49,0,*76
1508051143.3,62869,13.94,74840.0,6.39,-19.75,-20.63,0,*7F
1508051144.53,62870,13.94,74840.3,6.37,-19.71,-20.53,0,*7E
1508051145.82,62871,13.94,74840.3,6.39,-19.27,-20.19,0,*7C
1508051147.08,62872,13.94,74838.3,6.41,-19.61,-20.53,0,*7C
1508051148.29,62873,13.94,74834.3,6.41,-19.71,-20.59,0,*76
1508051149.52,62874,13.94,74834.3,6.41,-19.17,-20.15,0,*79
1508051150.72,62875,13.94,74828.5,6.41,-19.07,-20.09,0,*74
1508051151.96,62876,13.94,74826.5,6.43,-19.17,-20.09,0,*74
1508051153.23,62877,13.94,74826.3,6.43,-18.93,-19.81,0,*72
1508051154.43,62878,13.94,74824.0,6.45,-19.03,-19.95,0,*76
1508051155.68,62879,13.94,74826.0,6.45,-18.89,-19.81,0,*71
1508051156.92,62880,13.94,74830.8,6.45,-18.89,-19.81,0,*77
1508051158.16,62881,13.94,74832.8,6.47,-18.89,-19.75,0,*7F
1508051159.39,62882,13.94,74842.3,6.47,-18.99,-19.91,0,*77
1508051160.62,62883,13.94,74836.0,6.45,-19.31,-20.25,0,*72
1508051161.88,62884,13.94,74834.8,6.45,-19.27,-20.19,0,*7D
1508051163.11,62885,13.94,74834.5,6.47,-19.75,-20.73,0,*75
1508051164.31,62886,13.94,74836.5,6.49,-18.99,-19.99,0,*75
1508051165.54,62887,13.94,74840.8,6.49,-18.99,-19.85,0,*79
1508051166.74,62888,13.94,74832.8,6.49,-18.99,-19.91,0,*73
1508051167.94,62889,13.94,74842.0,6.49,-18.79,-19.71,0,*72
1508051169.2,62890,13.94,74840.8,6.51,-18.79,-19.85,0,*78
1508051170.47,62891,13.94,74830.8,6.51,-19.85,-20.79,0,*72
1508051171.68,62892,13.94,74822.3,6.49,-19.71,-20.59,0,*71
1508051172.94,62893,13.94,74824.8,6.51,-19.23,-20.09,0,*7B
1508051174.22,62894,13.94,74824.3,6.51,-19.23,-20.15,0,*71
1508051175.49,62895,13.94,74832.0,6.51,-18.89,-19.81,0,*76
1508051176.72,62896,13.94,74832.3,6.53,-18.79,-19.71,0,*77
1508051177.94,62897,13.94,74834.5,6.53,-18.79,-19.71,0,*76
1508051179.17,62898,13.94,74838.0,6.53,-19.17,-20.09,0,*75
1508051180.4,62899,13.94,74834.5,6.53,-19.37,-20.29,0,*74
1508051181.64,62900,13.94,74834.8,6.53,-19.51,-20.43,0,*79
1508051182.87,62901,13.94,74840.0,6.57,-18.99,-19.95,0,*78
1508051184.14,62902,13.94,74840.3,6.53,-18.89,-19.81,0,*7B
1508051185.37,62903,13.94,74846.0,6.57,-18.73,-19.75,0,*70
1508051186.64,62904,13.94,74838.5,6.57,-18.89,-19.81,0,*79
1508051187.87,62905,13.94,74850.0,6.57,-18.99,-20.05,0,*7F
1508051189.1,62906,13.94,74848.3,6.57,-18.83,-19.91,0,*70
1508051190.4,62907,13.94,74850.5,6.57,-19.27,-20.19,0,*74
1508051191.63,62908,13.94,74848.8,6.57,-19.17,-20.25,0,*77
1508051192.87,62909,13.94,74850.3,6.59,-19.71,-20.79,0,*71
1508051194.08,62910,13.94,74854.3,6.59,-19.37,-20.43,0,*72
1508051195.29,62911,13.94,74840.0,6.59,-18.99,-20.05,0,*74
1508051196.53,62912,13.94,74830.8,6.59,-19.23,-20.29,0,*79
1508051197.76,62913,13.94,74828.5,6.59,-19.41,-20.29,0,*7C
1508051199.0,62914,13.94,74822.3,6.59,-19.27,-20.29,0,*7B
1508051200.2,62915,13.94,74832.3,6.59,-18.99,-20.05,0,*70
1508051201.47,62916,13.94,74840.5,6.59,-19.27,-20.35,0,*74
1508051202.7,62917,13.94,74830.0,6.59,-20.83,-21.93,0,*7C
1508051203.96,62918,13.94,74830.5,6.57,-21.27,-22.11,0,*7B
1508051205.15,62919,13.94,74832.5,6.59,-20.05,-21.13,0,*74
1508051206.41,62920,13.94,74834.0,6.53,-20.63,-21.67,0,*77
1508051207.64,62921,13.94,74832.3,6.57,-20.59,-21.77,0,*7A
1508051208.86,62922,13.94,74830.8,6.53,-20.29,-21.39,0,*70
1508051210.12,62923,13.94,74830.8,6.53,-19.57,-20.63,0,*7C
1508051211.35,62924,13.94,74832.8,6.51,-19.47,-20.43,0,*7A
1508051212.59,62925,13.94,74834.8,6.51,-19.17,-20.29,0,*72
1508051213.84,62926,13.94,74834.5,6.51,-19.03,-20.15,0,*7B
1508051215.07,62927,13.94,74826.5,6.53,-19.17,-20.25,0,*7E
1508051216.3,62928,13.94,74832.8,6.53,-19.07,-20.25,0,*70
1508051217.53,62929,13.94,74834.8,6.53,-19.17,-20.09,0,*7E
1508051218.76,62930,13.94,74838.8,6.53,-19.07,-20.09,0,*77
1508051220.01,62931,13.94,74836.5,6.53,-18.79,-19.81,0,*74
1508051221.25,62932,13.94,74836.8,6.57,-19.17,-20.25,0,*7E
1508051222.48,62933,13.94,74836.8,6.57,-19.95,-21.13,0,*71
1508051223.73,62934,13.94,74828.5,6.57,-19.91,-21.03,0,*73
1508051224.99,62935,13.94,74832.0,6.57,-19.75,-20.83,0,*71
1508051226.22,62936,13.94,74838.0,6.53,-19.99,-21.17,0,*78
1508051227.49,62937,13.94,74836.8,6.53,-20.15,-21.33,0,*71
1508051228.76,62938,13.94,74834.3,6.53,-20.15,-21.23,0,*7F
1508051230.02,62939,13.94,74836.8,6.53,-19.65,-20.63,0,*76
1508051231.25,62940,13.94,74842.3,6.53,-19.07,-20.25,0,*7E
1508051232.48,62941,13.94,74842.3,6.53,-19.03,-20.09,0,*75
1508051233.71,62942,13.94,74840.5,6.53,-19.03,-20.25,0,*78
1508051234.96,62943,13.94,74836.5,6.57,-19.75,-21.03,0,*79
1508051236.23,62944,13.94,74840.0,6.57,-19.27,-20.39,0,*71
1508051237.49,62945,13.94,74832.5,6.57,-18.89,-19.95,0,*79
1508051238.74,62946,13.94,74842.8,6.53,-18.93,-19.99,0,*79
1508051239.99,62947,13.94,74840.5,6.57,-18.89,-20.05,0,*78
1508051241.2,62948,13.94,74840.8,6.59,-18.79,-19.91,0,*71
1508051242.4,62949,13.94,74840.8,6.59,-18.83,-19.99,0,*7D
1508051243.64,62950,13.94,74848.3,6.59,-19.13,-20.19,0,*7F
1508051244.87,62951,13.94,74850.5,6.59,-18.99,-20.15,0,*71
1508051246.1,62952,13.94,74848.3,6.61,-18.79,-19.75,0,*7B
1508051247.31,62953,13.94,74838.0,6.59,-18.99,-20.05,0,*72
1508051248.54,62954,13.94,74840.5,6.61,-18.83,-19.91,0,*72
1508051249.79,62955,13.94,74840.5,6.61,-18.83,-19.85,0,*76
1508051251.02,62956,13.94,74840.0,6.61,-18.83,-19.91,0,*70
1508051252.27,62957,13.94,74840.8,6.61,-19.07,-20.15,0,*7A
1508051253.47,62958,13.94,74844.3,6.63,-19.03,-20.09,0,*7E
1508051254.7,62959,13.94,74852.0,6.63,-18.93,-19.99,0,*74
1508051255.95,62960,13.94,74842.0,6.61,-20.05,-21.23,0,*72
1508051257.2,62961,13.94,74840.3,6.61,-20.19,-21.09,0,*76
1508051258.48,62962,13.94,74838.8,6.61,-19.23,-20.19,0,*76
1508051259.71,62963,13.94,74838.3,6.61,-19.71,-20.93,0,*72
1508051260.97,62964,13.94,74838.0,6.59,-19.61,-20.79,0,*7B
1508051262.23,62965,13.94,74838.3,6.61,-19.71,-20.83,0,*75
1508051263.44,62966,13.94,74834.8,6.59,-20.43,-21.47,0,*7F
1508051264.64,62967,13.94,74834.3,6.59,-20.63,-21.63,0,*7A
1508051265.87,62968,13.94,74836.3,6.59,-20.19,-21.39,0,*77
1508051267.09,62969,13.94,74834.3,6.57,-20.05,-21.13,0,*7D
1508051268.31,62970,13.94,74826.5,6.53,-20.29,-21.39,0,*77
1508051269.59,62971,13.94,74822.5,6.53,-19.57,-20.53,0,*78
1508051270.83,62972,14.0,74838.5,6.57,-18.83,-19.95,0,*77
1508051272.08,62973,13.94,74840.0,6.57,-18.69,-19.81,0,*77
1508051273.36,62974,14.0,74836.3,6.57,-18.55,-19.61,0,*71
1508051274.59,62975,13.94,74838.5,6.59,-18.49,-19.61,0,*73
1508051275.79,62976,13.94,74840.8,6.59,-18.49,-19.47,0,*74
1508051277.05,62977,13.94,74830.0,6.59,-18.35,-19.41,0,*78
1508051278.3,62978,13.94,74846.0,6.61,-18.45,-19.41,0,*7B
1508051279.51,62979,13.94,74840.0,6.63,-18.65,-19.71,0,*79
1508051280.71,62980,13.94,74828.3,6.63,-18.65,-19.95,0,*75
1508051281.96,62981,13.94,74820.3,6.65,-18.89,-19.95,0,*70
1508051283.21,62982,13.94,74826.5,6.65,-18.65,-19.81,0,*74
1508051284.44,62983,13.94,74832.8,6.65,-18.73,-19.95,0,*77
1508051285.69,62984,13.94,74830.5,6.65,-18.65,-19.81,0,*72
1508051286.92,62985,14.0,74840.5,6.67,-18.45,-19.61,0,*7D
1508051288.15,62986,13.94,74840.5,6.67,-18.55,-19.51,0,*7C
1508051289.35,62987,13.94,74838.5,6.67,-18.25,-19.47,0,*7D
1508051290.6,62988,13.94,74830.3,6.67,-18.59,-19.65,0,*79
1508051291.88,62989,13.94,74836.0,6.69,-18.55,-19.57,0,*7B
1508051293.08,62990,13.94,74824.8,6.71,-18.83,-19.99,0,*73
1508051294.29,62991,13.94,74838.8,6.67,-19.03,-20.09,0,*7F
1508051295.53,62992,13.94,74834.5,6.69,-19.13,-20.39,0,*70
1508051296.76,62993,13.94,74824.5,6.67,-19.75,-21.03,0,*77
1508051298.01,62994,14.0,74836.0,6.69,-20.05,-21.27,0,*75
1508051299.21,62995,13.94,74840.0,6.67,-20.25,-21.39,0,*77
1508051300.43,62996,13.94,74828.0,6.67,-20.05,-21.33,0,*7C
1508051301.68,62997,14.0,74834.0,6.65,-20.15,-21.39,0,*74
1508051302.91,62998,13.94,74838.8,6.65,-19.37,-20.63,0,*7F